TimeEDT,TemperatureF,Dew PointF,Humidity,Sea Level PressureIn,VisibilityMPH,Wind Direction,Wind SpeedMPH,Gust SpeedMPH,PrecipitationIn,Events,Conditions,WindDirDegrees,DateUTC
12:16 AM,75.2,71.6,89,29.84,10.0,SW,5.8,17.3,0.01,Rain,Light Rain,230,2013-08-28 04:16:00
12:38 AM,75.2,71.6,89,29.83,10.0,South,4.6,-,0.01,,Mostly Cloudy,180,2013-08-28 04:38:00
12:53 AM,75.0,71.1,87,29.82,10.0,SSW,3.5,-,0.01,,Scattered Clouds,210,2013-08-28 04:53:00
1:53 AM,73.9,71.1,91,29.80,10.0,SSE,3.5,-,N/A,,Scattered Clouds,160,2013-08-28 05:53:00
2:31 AM,73.4,71.6,94,29.81,7.0,Calm,Calm,-,N/A,,Overcast,0,2013-08-28 06:31:00
2:53 AM,75.0,72.0,90,29.80,7.0,Calm,Calm,-,N/A,,Overcast,0,2013-08-28 06:53:00
3:16 AM,75.2,71.6,89,29.82,7.0,Calm,Calm,-,N/A,,Overcast,0,2013-08-28 07:16:00
3:53 AM,75.0,72.0,90,29.81,5.0,NNW,3.5,-,N/A,,Overcast,340,2013-08-28 07:53:00
4:53 AM,75.0,71.1,87,29.81,8.0,NW,3.5,-,N/A,,Overcast,310,2013-08-28 08:53:00
5:17 AM,73.4,71.6,94,29.83,7.0,NW,4.6,-,N/A,,Overcast,320,2013-08-28 09:17:00
5:53 AM,73.9,71.1,91,29.82,5.0,NNW,3.5,-,N/A,,Overcast,330,2013-08-28 09:53:00
6:20 AM,73.4,69.8,88,29.84,4.0,North,4.6,-,N/A,,Overcast,350,2013-08-28 10:20:00
6:53 AM,73.0,70.0,90,29.83,4.0,North,5.8,-,N/A,,Overcast,10,2013-08-28 10:53:00
7:16 AM,73.4,71.6,94,29.86,2.0,North,5.8,-,N/A,,Overcast,10,2013-08-28 11:16:00
7:26 AM,73.4,71.6,94,29.86,2.0,North,6.9,-,N/A,,Overcast,360,2013-08-28 11:26:00
7:53 AM,73.0,71.1,93,29.86,2.0,North,6.9,-,N/A,,Overcast,350,2013-08-28 11:53:00
8:00 AM,73.4,71.6,94,29.87,1.0,North,4.6,-,N/A,,Overcast,350,2013-08-28 12:00:00
8:53 AM,73.9,71.1,91,29.87,1.0,North,6.9,-,N/A,,Overcast,360,2013-08-28 12:53:00
9:10 AM,73.4,71.6,94,29.88,1.5,North,8.1,-,N/A,,Overcast,360,2013-08-28 13:10:00
9:53 AM,75.0,71.1,87,29.88,1.5,NNE,6.9,-,N/A,,Overcast,20,2013-08-28 13:53:00
10:00 AM,75.2,71.6,89,29.90,2.5,NE,8.1,-,N/A,,Overcast,40,2013-08-28 14:00:00
10:11 AM,75.2,71.6,89,29.90,1.5,NNE,9.2,-,N/A,,Overcast,30,2013-08-28 14:11:00
10:39 AM,75.2,71.6,89,29.91,2.0,North,6.9,-,N/A,,Overcast,10,2013-08-28 14:39:00
10:53 AM,75.0,71.1,87,29.90,2.0,NNE,6.9,-,N/A,,Overcast,20,2013-08-28 14:53:00
11:25 AM,75.2,71.6,89,29.92,2.5,North,8.1,-,N/A,,Haze,10,2013-08-28 15:25:00
11:53 AM,75.9,71.1,85,29.92,2.5,North,6.9,-,N/A,,Haze,10,2013-08-28 15:53:00
11:56 AM,75.2,71.6,89,29.93,5.0,NNE,5.8,-,N/A,,Haze,20,2013-08-28 15:56:00
12:04 PM,77.0,71.6,83,29.93,5.0,North,5.8,-,N/A,,Haze,10,2013-08-28 16:04:00
12:11 PM,77.0,71.6,83,29.93,5.0,North,6.9,-,N/A,,Haze,350,2013-08-28 16:11:00
12:53 PM,75.9,71.1,85,29.92,5.0,North,8.1,-,N/A,,Haze,360,2013-08-28 16:53:00
1:00 PM,77.0,71.6,83,29.94,5.0,North,6.9,-,N/A,,Haze,10,2013-08-28 17:00:00
1:35 PM,77.0,71.6,83,29.94,7.0,North,11.5,-,N/A,,Overcast,10,2013-08-28 17:35:00
1:46 PM,77.0,71.6,83,29.95,6.0,North,9.2,-,N/A,,Haze,350,2013-08-28 17:46:00
1:53 PM,78.1,71.1,79,29.94,6.0,North,9.2,-,N/A,,Haze,350,2013-08-28 17:53:00
2:53 PM,82.0,71.1,69,29.94,10.0,North,9.2,-,N/A,,Overcast,10,2013-08-28 18:53:00
3:38 PM,80.6,71.6,74,29.96,10.0,NNE,8.1,-,N/A,,Overcast,20,2013-08-28 19:38:00
3:53 PM,82.9,70.0,65,29.94,10.0,North,8.1,-,N/A,,Mostly Cloudy,360,2013-08-28 19:53:00
4:00 PM,84.2,69.8,62,29.95,10.0,North,8.1,-,N/A,,Scattered Clouds,10,2013-08-28 20:00:00
4:53 PM,82.9,70.0,65,29.94,10.0,North,13.8,17.3,N/A,,Mostly Cloudy,360,2013-08-28 20:53:00
5:53 PM,84.0,69.1,61,29.95,10.0,North,11.5,-,N/A,,Scattered Clouds,360,2013-08-28 21:53:00
6:53 PM,81.0,66.9,62,29.96,10.0,North,11.5,-,N/A,,Clear,360,2013-08-28 22:53:00
7:53 PM,78.1,66.0,66,29.97,10.0,North,8.1,-,N/A,,Clear,360,2013-08-28 23:53:00
8:53 PM,75.0,66.0,73,29.99,10.0,North,4.6,-,N/A,,Clear,360,2013-08-29 00:53:00
9:53 PM,73.0,66.0,79,30.01,10.0,North,4.6,-,N/A,,Clear,10,2013-08-29 01:53:00
10:53 PM,71.1,66.0,84,30.02,10.0,Calm,Calm,-,N/A,,Clear,0,2013-08-29 02:53:00
11:53 PM,70.0,66.0,87,30.03,9.0,North,3.5,-,N/A,,Clear,350,2013-08-29 03:53:00